Location: Newport
(44.6370°N, 124.0520°W)
Time: 20:31:37
(UTC-08:00)

OTV 5 (USA 277) - Pass Details

Date: 14 October 2017
Orbit: 404 x 417 km, 43.0° (Epoch: 07 September)

Event Time Altitude Azimuth Distance (km) Brightness Sun altitude
Rises 19:38:09 0° 255° (WSW) 2,352 ? -12.4°
Reaches altitude 10° 19:40:17 10° 252° (WSW) 1,490 ? -12.8°
Maximum altitude 19:43:36 60° 172° (S) 481 ? -13.4°
Enters shadow 19:45:15 26° 100° (E) 850 ? -13.7°
